EW2318 Weather Reports


Display with metric or nautical units.
time (UTC)temp
F
wind
direction
speed
MPH
gust
MPH
rain 1hr
in
rain 24hr
in
rain mn
in
humidity
%
barometer
mb
20260506214551 59 185 3.0 11.0 0.00 0.00 0.00 73 1007.7
20260506214044 59 68 3.0 11.0 0.00 0.00 0.00 72 1007.7
20260506213543 59 145 4.0 11.0 0.00 0.00 0.00 72 1007.6
20260506213105 59 265 3.0 11.0 0.00 0.00 0.00 72 1007.6
20260506212544 59 149 4.0 10.0 0.00 0.00 0.00 72 1007.7
20260506212044 59 168 3.0 7.0 0.00 0.00 0.00 71 1007.8
20260506211553 59 199 2.0 7.0 0.00 0.00 0.00 71 1007.8
20260506211044 59 173 2.0 9.0 0.00 0.00 0.00 71 1007.6
20260506210544 59 202 3.0 9.0 0.00 0.00 0.00 70 1007.7
20260506210104 59 207 2.0 8.0 0.00 0.00 0.00 70 1007.6
20260506205545 59 300 3.0 9.0 0.00 0.00 0.00 70 1007.6
20260506205043 59 113 2.0 9.0 0.00 0.00 0.00 70 1007.6
20260506204605 60 142 2.0 11.0 0.00 0.00 0.00 69 1007.5
20260506204043 60 104 3.0 11.0 0.00 0.00 0.00 69 1007.6
20260506203547 60 142 3.0 13.0 0.00 0.00 0.00 69 1007.4
20260506203053 60 211 3.0 13.0 0.00 0.00 0.00 68 1007.5
20260506202543 60 150 4.0 12.0 0.00 0.00 0.00 68 1007.4
20260506202044 60 168 2.0 12.0 0.00 0.00 0.00 68 1007.4
20260506201551 60 153 5.0 12.0 0.00 0.00 0.00 68 1007.5
20260506201044 60 155 5.0 12.0 0.00 0.00 0.00 67 1007.4
20260506200545 60 180 3.0 13.0 0.00 0.00 0.00 67 1007.5
20260506200052 60 202 5.0 13.0 0.00 0.00 0.00 67 1007.5
20260506195548 61 171 3.0 14.0 0.00 0.00 0.00 67 1007.5
20260506195044 61 157 4.0 14.0 0.00 0.00 0.00 66 1007.4
20260506194549 61 156 3.0 11.0 0.00 0.00 0.00 67 1007.4
20260506194046 61 190 2.0 11.0 0.00 0.00 0.00 66 1007.4
20260506193542 61 170 4.0 11.0 0.00 0.00 0.00 66 1007.5
20260506193055 61 131 3.0 9.0 0.00 0.00 0.00 66 1007.3
20260506192544 61 159 3.0 10.0 0.00 0.00 0.00 66 1007.3
20260506192043 61 150 3.0 10.0 0.00 0.00 0.00 66 1007.3
20260506191553 61 145 4.0 10.0 0.00 0.00 0.00 66 1007.4
20260506191047 61 154 2.0 8.0 0.00 0.00 0.00 66 1007.4
20260506190547 61 144 2.0 10.0 0.00 0.00 0.00 66 1007.3
20260506190055 61 136 2.0 10.0 0.00 0.00 0.00 65 1007.4
20260506185547 61 192 2.0 10.0 0.00 0.00 0.00 65 1007.3
20260506185047 62 194 2.0 7.0 0.00 0.00 0.00 64 1007.2
20260506184622 62 132 2.0 6.0 0.00 0.00 0.00 64 1007.2
20260506184045 62 137 2.0 8.0 0.00 0.00 0.00 63 1007.2
20260506183546 62 165 2.0 8.0 0.00 0.00 0.00 63 1007.0
20260506183053 62 318 2.0 8.0 0.00 0.00 0.00 62 1006.9
20260506182543 63 149 2.0 9.0 0.00 0.00 0.00 62 1007.0
20260506182043 63 159 4.0 12.0 0.00 0.00 0.00 61 1006.9
20260506181554 63 148 3.0 12.0 0.00 0.00 0.00 60 1006.9
20260506181043 63 163 3.0 12.0 0.00 0.00 0.00 60 1006.7
20260506180544 63 210 4.0 12.0 0.00 0.00 0.00 60 1006.7
20260506180056 63 94 3.0 12.0 0.00 0.00 0.00 60 1006.7
20260506175546 63 177 3.0 12.0 0.00 0.00 0.00 59 1006.7
20260506175050 64 148 4.0 12.0 0.00 0.00 0.00 59 1006.7
20260506174552 64 133 2.0 10.0 0.00 0.00 0.00 59 1006.6
20260506174047 64 178 3.0 10.0 0.00 0.00 0.00 59 1006.6
20260506173547 64 178 3.0 12.0 0.00 0.00 0.00 59 1006.7
20260506173052 64 194 4.0 12.0 0.00 0.00 0.00 59 1006.7
20260506172546 65 331 3.0 13.0 0.00 0.00 0.00 59 1006.6
20260506172048 65 160 3.0 13.0 0.00 0.00 0.00 59 1006.6
20260506171559 65 124 2.0 10.0 0.00 0.00 0.00 59 1006.7
20260506171043 65 152 5.0 10.0 0.00 0.00 0.00 59 1006.7
20260506170545 65 136 4.0 14.0 0.00 0.00 0.00 59 1006.7
20260506170057 65 186 6.0 14.0 0.00 0.00 0.00 59 1006.7
20260506165543 65 144 4.0 12.0 0.00 0.00 0.00 59 1006.8
20260506165043 65 142 4.0 17.0 0.00 0.00 0.00 60 1006.7
20260506164555 66 158 6.0 17.0 0.00 0.00 0.00 60 1006.7
20260506164046 66 207 5.0 14.0 0.00 0.00 0.00 60 1006.9
20260506163547 66 176 6.0 13.0 0.00 0.00 0.00 60 1006.8
20260506163057 66 170 6.0 14.0 0.00 0.00 0.00 61 1007.0
20260506162551 65 151 7.0 16.0 0.00 0.00 0.00 61 1007.2
20260506162048 65 165 4.0 16.0 0.00 0.00 0.00 61 1007.3
20260506161553 65 215 5.0 16.0 0.00 0.00 0.00 62 1007.3
20260506161045 65 159 4.0 13.0 0.00 0.00 0.00 63 1007.3
20260506160549 65 196 6.0 16.0 0.00 0.00 0.00 62 1007.4
20260506160107 65 126 8.0 16.0 0.00 0.00 0.00 62 1007.5
20260506155545 65 169 4.0 10.0 0.00 0.00 0.00 63 1007.4
20260506155043 65 130 3.0 12.0 0.00 0.00 0.00 63 1007.6
20260506154554 65 138 5.0 12.0 0.00 0.00 0.00 62 1007.8
20260506154043 65 177 4.0 13.0 0.00 0.00 0.00 62 1007.7
20260506153546 65 154 3.0 13.0 0.00 0.00 0.00 63 1007.8
20260506153059 65 136 5.0 13.0 0.00 0.00 0.00 61 1007.7
20260506152547 65 138 2.0 10.0 0.00 0.00 0.00 62 1007.8
20260506152047 65 121 4.0 10.0 0.00 0.00 0.00 61 1007.8
20260506151557 65 127 3.0 11.0 0.00 0.00 0.00 62 1007.8
20260506151047 66 145 3.0 13.0 0.00 0.00 0.00 62 1008.0
20260506150544 66 152 5.0 13.0 0.00 0.00 0.00 61 1008.0
20260506150055 66 145 6.0 13.0 0.00 0.00 0.00 60 1008.0
20260506145545 66 150 5.0 10.0 0.00 0.00 0.00 60 1008.0
20260506145044 66 158 4.0 10.0 0.00 0.00 0.00 60 1008.0
20260506144600 66 257 3.0 10.0 0.00 0.00 0.00 60 1008.0
20260506144043 66 168 4.0 8.0 0.00 0.00 0.00 59 1008.2
20260506143544 67 196 3.0 10.0 0.00 0.00 0.00 59 1008.2
20260506143057 67 188 3.0 11.0 0.00 0.00 0.00 58 1008.2
20260506142545 67 115 5.0 11.0 0.00 0.00 0.00 57 1008.1
20260506142047 67 169 2.0 14.0 0.00 0.00 0.00 57 1008.2
20260506141550 67 118 3.0 14.0 0.00 0.00 0.00 56 1008.2
20260506141045 67 115 3.0 11.0 0.00 0.00 0.00 55 1008.2
20260506140545 68 182 2.0 11.0 0.00 0.00 0.00 55 1008.3
20260506140054 68 145 4.0 11.0 0.00 0.00 0.00 53 1008.4
20260506135544 68 152 2.0 7.0 0.00 0.00 0.00 55 1008.4
20260506135045 68 190 1.0 7.0 0.00 0.00 0.00 59 1008.5
20260506134549 67 155 2.0 9.0 0.00 0.00 0.00 58 1008.6
20260506134045 67 234 3.0 9.0 0.00 0.00 0.00 56 1008.6
20260506133544 67 164 2.0 7.0 0.00 0.00 0.00 56 1008.6
20260506133048 68 189 2.0 11.0 0.00 0.00 0.00 56 1008.7
20260506132547 68 179 2.0 16.0 0.00 0.00 0.00 56 1008.6
20260506132044 68 136 3.0 16.0 0.00 0.00 0.00 55 1008.7
20260506131607 68 143 6.0 16.0 0.00 0.00 0.00 55 1008.6
20260506131044 68 179 3.0 15.0 0.00 0.00 0.00 57 1008.7
20260506130544 68 159 5.0 15.0 0.00 0.00 0.00 55 1008.8
20260506130055 68 138 5.0 13.0 0.00 0.00 0.00 57 1008.8
20260506125544 68 190 3.0 13.0 0.00 0.00 0.00 58 1008.8
20260506125044 67 100 5.0 10.0 0.00 0.00 0.00 57 1008.8
20260506124553 67 127 4.0 11.0 0.00 0.00 0.00 58 1008.7
20260506124045 67 157 4.0 11.0 0.00 0.00 0.00 58 1008.7
20260506123545 67 157 3.0 10.0 0.00 0.00 0.00 57 1008.8
20260506123055 67 157 2.0 8.0 0.00 0.00 0.00 57 1008.8
20260506122545 67 221 3.0 8.0 0.00 0.00 0.00 57 1008.8
20260506122045 67 167 2.0 8.0 0.00 0.00 0.00 57 1008.9
20260506121558 68 140 2.0 8.0 0.00 0.00 0.00 56 1008.9
20260506121047 68 299 3.0 8.0 0.00 0.00 0.00 59 1009.0
20260506120545 67 120 1.0 6.0 0.00 0.00 0.00 58 1008.9
20260506120055 67 0 2.0 7.0 0.00 0.00 0.00 57 1008.9
20260506115547 67 223 1.0 7.0 0.00 0.00 0.00 58 1009.0
20260506115044 67 234 1.0 7.0 0.00 0.00 0.00 59 1009.0
20260506114556 67 188 1.0 4.0 0.00 0.00 0.00 58 1009.0
20260506114044 67 189 1.0 8.0 0.00 0.00 0.00 58 1009.0
20260506113544 67 81 2.0 12.0 0.00 0.00 0.00 59 1009.1
20260506113051 67 240 3.0 12.0 0.00 0.00 0.00 57 1009.0
20260506112547 67 155 4.0 12.0 0.00 0.00 0.00 57 1009.1
20260506112044 67 198 5.0 12.0 0.00 0.00 0.00 58 1009.2
20260506111555 67 201 2.0 12.0 0.00 0.00 0.00 60 1009.2
20260506111045 66 105 5.0 12.0 0.00 0.00 0.00 58 1009.1
20260506110545 65 100 2.0 8.0 0.00 0.00 0.00 62 1009.1
20260506110054 64 153 2.0 7.0 0.00 0.00 0.00 62 1009.3
20260506105544 64 0 1.0 8.0 0.00 0.00 0.00 63 1009.3
20260506105047 64 268 4.0 8.0 0.00 0.00 0.00 61 1009.4
20260506104556 64 192 3.0 8.0 0.00 0.00 0.00 63 1009.4
20260506104043 64 0 2.0 8.0 0.00 0.00 0.00 64 1009.5
20260506103544 64 0 2.0 10.0 0.00 0.00 0.00 63 1009.4
20260506103053 65 60 4.0 13.0 0.00 0.00 0.00 62 1009.4
20260506102544 65 271 2.0 13.0 0.00 0.00 0.00 61 1009.4
20260506102044 66 269 3.0 10.0 0.00 0.00 0.00 61 1009.4
20260506101555 66 138 4.0 10.0 0.00 0.00 0.00 61 1009.6
20260506101044 66 191 3.0 10.0 0.00 0.00 0.00 64 1009.5
20260506100543 65 130 3.0 10.0 0.00 0.00 0.00 65 1009.7
20260506100109 65 146 5.0 13.0 0.00 0.00 0.00 65 1009.6
20260506095544 64 238 4.0 13.0 0.00 0.00 0.00 66 1009.7
20260506095044 64 143 2.0 10.0 0.00 0.00 0.00 67 1009.6
20260506094552 63 303 3.0 10.0 0.00 0.00 0.00 65 1009.6
20260506094043 63 96 2.0 8.0 0.00 0.00 0.00 69 1009.5
20260506093543 62 199 2.0 10.0 0.00 0.00 0.00 69 1009.7
20260506093057 62 214 2.0 11.0 0.00 0.00 0.00 71 1009.7
20260506092544 61 195 4.0 11.0 0.00 0.00 0.00 71 1009.7
20260506092047 60 143 2.0 15.0 0.00 0.00 0.00 74 1009.7
20260506091558 60 305 3.0 15.0 0.00 0.00 0.00 71 1009.6
20260506091043 60 259 5.0 11.0 0.00 0.00 0.00 72 1009.6
20260506090543 60 227 5.0 11.0 0.00 0.00 0.00 72 1009.6
20260506090054 60 259 3.0 13.0 0.00 0.00 0.00 74 1009.7
20260506085544 59 213 4.0 13.0 0.00 0.00 0.00 75 1009.6
20260506085044 59 288 6.0 12.0 0.00 0.00 0.00 76 1009.6
20260506084550 58 242 5.0 12.0 0.00 0.00 0.00 76 1009.5
20260506084044 58 275 7.0 12.0 0.00 0.00 0.00 76 1009.5
20260506083547 59 238 6.0 12.0 0.00 0.00 0.00 76 1009.6
20260506083052 59 246 5.0 12.0 0.00 0.00 0.00 77 1009.4
20260506082546 58 269 5.0 12.0 0.00 0.00 0.00 78 1009.5
20260506082044 58 254 4.0 11.0 0.00 0.00 0.00 80 1009.4
20260506081551 57 223 3.0 8.0 0.00 0.00 0.00 83 1009.4
20260506081044 57 240 2.0 11.0 0.00 0.00 0.00 83 1009.5
20260506080544 56 234 4.0 11.0 0.00 0.00 0.00 83 1009.4
20260506073055 56 275 5.0 10.0 0.00 0.00 0.00 84 1009.1
20260506072544 56 321 4.0 13.0 0.00 0.00 0.00 84 1009.1
20260506072044 56 271 7.0 13.0 0.00 0.00 0.00 84 1009.2
20260506071558 56 222 6.0 13.0 0.00 0.00 0.00 84 1009.1
20260506071048 55 229 6.0 13.0 0.00 0.00 0.00 85 1009.1
20260506070548 55 264 5.0 10.0 0.00 0.00 0.00 85 1009.1
20260506062044 53 200 4.0 9.0 0.00 0.00 0.00 87 1008.9
20260506061551 53 296 4.0 10.0 0.00 0.00 0.00 86 1008.8
20260506061044 53 213 3.0 11.0 0.00 0.00 0.00 86 1008.7
20260506060544 53 329 3.0 11.0 0.00 0.00 0.00 85 1008.5
20260506051043 51 330 2.0 9.0 0.00 0.00 0.00 87 1008.6
20260506050545 51 343 2.0 9.0 0.00 0.00 0.00 86 1008.5
20260506045044 51 240 3.0 8.0 0.00 0.00 0.00 88 1008.1
20260506044550 50 271 2.0 6.0 0.00 0.00 0.00 88 1008.1
20260506044043 50 0 2.0 5.0 0.00 0.00 0.00 89 1008.0
20260506043544 50 287 1.0 6.0 0.00 0.00 0.00 89 1007.9
20260506043049 49 288 2.0 7.0 0.00 0.00 0.00 89 1007.9
20260506042543 49 272 1.0 7.0 0.00 0.00 0.00 89 1007.8
20260506042047 49 284 2.0 8.0 0.00 0.00 0.00 89 1007.8
20260506041559 49 240 3.0 8.0 0.00 0.00 0.00 89 1007.9
20260506041044 49 294 4.0 8.0 0.00 0.00 0.00 89 1007.8
20260506040543 49 271 3.0 6.0 0.00 0.00 0.00 89 1007.9
20260506040111 49 273 2.0 8.0 0.00 0.00 0.00 88 1007.6
20260506035544 49 250 2.0 8.0 0.00 0.00 0.00 88 1007.5
20260506035044 49 273 3.0 6.0 0.00 0.00 0.00 88 1007.5
20260506034551 49 236 2.0 6.0 0.00 0.00 0.00 87 1007.4
20260506034042 49 265 3.0 6.0 0.00 0.00 0.00 87 1007.6
20260506033544 50 250 2.0 6.0 0.00 0.00 0.00 87 1007.4
20260506033055 50 268 2.0 6.0 0.00 0.00 0.00 86 1007.4
20260506032543 50 269 2.0 6.0 0.00 0.00 0.00 86 1007.4
20260506032043 50 328 2.0 6.0 0.00 0.00 0.00 86 1007.4
20260506031552 50 285 1.0 7.0 0.00 0.00 0.00 86 1007.2
20260506031046 50 311 2.0 7.0 0.00 0.00 0.00 85 1007.2
20260506030545 50 262 2.0 7.0 0.00 0.00 0.00 85 1007.2
20260506025544 50 314 3.0 9.0 0.00 0.00 0.00 84 1007.2
20260506025043 50 259 3.0 9.0 0.00 0.00 0.00 84 1007.3
20260506024555 50 271 3.0 8.0 0.00 0.00 0.00 84 1007.2
20260506024043 50 229 3.0 7.0 0.00 0.00 0.00 83 1007.3
20260506023544 50 245 3.0 7.0 0.00 0.00 0.00 83 1007.4
20260506023047 50 245 3.0 8.0 0.00 0.00 0.00 83 1007.3
20260506022543 50 253 3.0 8.0 0.00 0.00 0.00 83 1007.3
20260506022044 50 245 3.0 8.0 0.00 0.00 0.00 82 1007.3
20260506021549 50 289 2.0 7.0 0.00 0.00 0.00 82 1007.3
20260506021042 50 283 2.0 7.0 0.00 0.00 0.00 82 1007.3
20260506020543 50 304 2.0 7.0 0.00 0.00 0.00 82 1007.4
20260506020051 51 254 3.0 6.0 0.00 0.00 0.00 81 1007.3
20260506015545 51 248 2.0 7.0 0.00 0.00 0.00 81 1007.4
20260506015046 51 248 2.0 7.0 0.00 0.00 0.00 81 1007.3
20260506014558 51 250 3.0 7.0 0.00 0.00 0.00 81 1007.3
20260506014043 51 246 3.0 6.0 0.00 0.00 0.00 80 1007.4
20260506013543 51 241 3.0 6.0 0.00 0.00 0.00 80 1007.4
20260506013049 52 271 3.0 6.0 0.00 0.00 0.00 79 1007.4
20260506012543 52 290 2.0 10.0 0.00 0.00 0.00 78 1007.4
20260506012044 52 287 3.0 10.0 0.00 0.00 0.00 78 1007.5
20260506011553 52 242 2.0 6.0 0.00 0.00 0.00 77 1007.5
20260506011045 53 244 2.0 6.0 0.00 0.00 0.00 77 1007.5
20260506010543 53 256 2.0 6.0 0.00 0.00 0.00 76 1007.6
20260506010101 53 293 1.0 6.0 0.00 0.00 0.00 76 1007.5
20260506005543 53 286 1.0 7.0 0.00 0.00 0.00 76 1007.5
20260506005043 53 42 1.0 7.0 0.00 0.00 0.00 76 1007.6
20260506004553 53 267 1.0 6.0 0.00 0.00 0.00 75 1007.6
20260506004043 54 276 1.0 5.0 0.00 0.00 0.00 75 1007.6
20260506003543 54 217 1.0 7.0 0.00 0.00 0.00 75 1007.6
20260506003057 54 0 1.0 7.0 0.00 0.00 0.00 75 1007.6
20260506002543 54 197 2.0 8.0 0.00 0.00 0.00 75 1007.6
20260506002043 54 255 3.0 8.0 0.00 0.00 0.00 75 1007.8
20260506001556 54 260 2.0 6.0 0.00 0.00 0.00 75 1007.7
20260506001045 54 248 1.0 4.0 0.00 0.00 0.00 74 1007.6
20260506000544 54 217 1.0 4.0 0.00 0.00 0.00 74 1007.5
20260506000100 54 236 1.0 4.0 0.00 0.00 0.00 74 1007.6
20260505235544 54 261 0.0 4.0 0.00 0.00 0.00 74 1007.6
20260505235044 54 193 2.0 9.0 0.00 0.00 0.00 74 1007.6
20260505234549 54 264 1.0 9.0 0.00 0.00 0.00 73 1007.6
20260505234044 54 202 1.0 9.0 0.00 0.00 0.00 73 1007.7
20260505233544 54 201 1.0 9.0 0.00 0.00 0.00 73 1007.8
20260505233059 54 188 2.0 9.0 0.00 0.00 0.00 72 1007.8
20260505232543 54 229 1.0 7.0 0.00 0.00 0.00 72 1007.8
20260505232043 55 101 2.0 8.0 0.00 0.00 0.00 72 1007.8
20260505231553 55 155 1.0 8.0 0.00 0.00 0.00 72 1007.9
20260505231043 55 190 1.0 7.0 0.00 0.00 0.00 71 1007.9
20260505230543 55 0 1.0 7.0 0.00 0.00 0.00 71 1008.0
20260505230052 55 271 1.0 6.0 0.00 0.00 0.00 71 1008.0
20260505225547 55 284 1.0 6.0 0.00 0.00 0.00 70 1008.0
20260505225043 55 236 1.0 8.0 0.00 0.00 0.00 70 1008.1
20260505224556 55 0 2.0 8.0 0.00 0.00 0.00 69 1008.0
20260505224043 55 194 1.0 8.0 0.00 0.00 0.00 69 1008.0
20260505223543 56 0 1.0 8.0 0.00 0.00 0.00 69 1008.0
20260505223054 56 309 1.0 6.0 0.00 0.00 0.00 68 1008.0
20260505222543 56 58 1.0 7.0 0.00 0.00 0.00 68 1008.0
20260505222043 56 0 1.0 9.0 0.00 0.00 0.00 68 1008.0
20260505221601 56 168 3.0 11.0 0.00 0.00 0.00 68 1008.0
20260505221045 56 200 3.0 11.0 0.00 0.00 0.00 67 1008.0
20260505220544 56 196 3.0 11.0 0.00 0.00 0.00 67 1008.0
20260505220054 56 165 3.0 8.0 0.00 0.00 0.00 66 1008.1
20260505215544 56 221 3.0 9.0 0.00 0.00 0.00 66 1008.1
20260505215043 57 205 2.0 9.0 0.00 0.00 0.00 65 1008.2